Regional Weather Roundup
Issued by NWS

Home | Current Version | Previous Version | Text Only | Print | Product List | Glossary Off
Versions: 1 2 3 4 5 6 7 8 9 10 11 12 13 14 15 16 17 18 19 20 21 22 23 24 25 26 27 28 29 30 31 32 33 34 35 36 37 38 39 40 41 42 43 44 45 46 47 48 49 50

579
ASUS45 KTFX 291710
RWRMT
MONTANA REGIONAL WEATHER ROUNDUP
NATIONAL WEATHER SERVICE GREAT FALLS MT
1100 AM MDT SUN MAY 29 2016

NOTE: "FAIR" INDICATES FEW OR NO CLOUDS BELOW 12000 FEET WITH NO
SIGNIFICANT WEATHER AND/OR OBSTRUCTIONS TO VISIBILITY.

MTZ001>007-043-291800-
WEST OF THE DIVIDE

CITY           SKY/WX    TMP DP  RH WIND       PRES   REMARKS
KALISPELL      SUNNY     57  40  52 VRB5      30.01F
MISSOULA       LGT RAIN  54  41  61 CALM      30.06F
BUTTE          SUNNY     58  31  35 NW8       30.10F
MULLAN PASS    CLOUDY    48  35  60 VRB3      30.07S
ANACONDA         N/A     63  30  29 S10       30.06F
DEER LODGE       N/A     57  39  51 NE5       30.07F
EUREKA           N/A     61  39  44 S5        30.00
HAMILTON         N/A     61  37  41 NE3       30.03F
LIBBY            N/A     55  39  54 CALM      30.00F
$$

MTZ008-052>055-291800-
SOUTHWEST MONTANA

CITY           SKY/WX    TMP DP  RH WIND       PRES   REMARKS
BOZEMAN        SUNNY     60  42  51 N6        30.08F
DILLON         SUNNY     59  33  37 SW7       30.09F
W YELLOWSTONE  SUNNY     54  30  40 SW13      30.18F
ENNIS          SUNNY     63  30  29 S9        30.14F
$$

MTZ009-010-012-014-046-048-049-054-291800-
EAST SLOPES AND CENTRAL MONTANA

CITY           SKY/WX    TMP DP  RH WIND       PRES   REMARKS
CUT BANK       MOSUNNY   59  35  40 W16G26    29.98S
GREAT FALLS    MOSUNNY   64  34  32 SW15      30.00F
MALMSTROM AFB  SUNNY     64  34  32 SW15G24   30.01S
HELENA         SUNNY     60  40  47 E6        30.05F
CHOTEAU          N/A     63  36  36 SW9       30.00F
$$

MTZ011-013-016-021-045-047-050-051-291800-
NORTH CENTRAL MONTANA

CITY           SKY/WX    TMP DP  RH WIND       PRES   REMARKS
HAVRE          SUNNY     65  41  41 SW20      29.97S
LEWISTOWN      SUNNY     64  32  30 W8        30.04F
N BAR RANCH      N/A     64  32  29 NW12G17   30.06F
CHINOOK          N/A     64  43  45 CALM      29.97F
$$

MTZ017>020-022>027-061-062-291800-
NORTHEAST MONTANA

CITY           SKY/WX    TMP DP  RH WIND       PRES   REMARKS
GLASGOW        SUNNY     64  42  44 SW5       29.99F
JORDAN           N/A     69  38  32 W10       30.00F
SIDNEY         SUNNY     70  36  28 SW9       30.00F
WOLF POINT     SUNNY     69  39  33 SW10      30.00F
PLENTYWOOD       N/A     66  34  30 W14       29.98F
POPLAR           N/A     66  37  34 SW8       30.01S
$$

MTZ028>42-056>058-291800-
SOUTHCENTRAL AND SOUTHEAST MONTANA

CITY           SKY/WX    TMP DP  RH WIND       PRES   REMARKS
BAKER          SUNNY     72  41  32 W14       30.04F
BILLINGS       MOSUNNY   65  43  44 SW6       30.06F
LIVINGSTON     SUNNY     64  35  34 W10       30.06F
MILES CITY     SUNNY     69  45  41 VRB3      30.02F
FORSYTH          N/A     68  48  49 NW3       30.02F
$$

REGIONAL REPORTS...DAKOTAS

CITY           SKY/WX    TMP DP  RH WIND       PRES   REMARKS
WILLISTON      SUNNY     70  38  31 SW13      30.01S
MINOT          SUNNY     74  39  28 W16       29.97S
DICKINSON      SUNNY     68  40  35 VRB6      30.02F
BEACH            N/A     70  39  32 W10G16    30.06S
CROSBY           N/A     66  37  34 W13G22    30.00R
WATFORD CITY     N/A     68  36  30 W10G17    30.02S
BISMARCK       SUNNY     72  45  37 NW9       30.02F
GRAND FORKS    PTSUNNY   68  58  70 N10       29.93S
FARGO          PTSUNNY   70  57  63 N10       29.95S
BUFFALO SD       N/A     75  37  25 W9        29.99F
RAPID CITY     PTSUNNY   69  50  50 SE7       30.10S
$$

REGIONAL REPORTS...WYOMING/IDAHO/WASHINGTON

CITY           SKY/WX    TMP DP  RH WIND       PRES   REMARKS
GILLETTE       SUNNY     66  45  46 VRB7      30.09F
SHERIDAN       SUNNY     71  41  33 E7        30.06F
BUFFALO WY     SUNNY     65  44  46 SE12      30.11F
CODY           SUNNY     64  34  32 S3        30.09F
YELLOWSTONE LA   N/A     48  26  42 MISG      30.25F
IDAHO FALLS    SUNNY     62  38  40 VRB3      30.13F
SALMON         SUNNY     55  37  50 N5        30.08F
BOISE          SUNNY     72  32  23 E10       30.02F
SPOKANE        PTSUNNY   61  41  47 SW13      29.99S
$$

REGIONAL REPORTS...ALBERTA

CITY           SKY/WX    TMP DP  RH WIND       PRES   REMARKS
EDMONTON       MOSUNNY   61  45  55 E12       29.84S
CALGARY        PTSUNNY   61  30  31 SW6       29.86F
LETHBRIDGE     MOSUNNY   63  37  39 W26G35    29.91F
MEDICINE HAT   MOSUNNY   66  36  32 SW17G26   29.89F
WATERTON GATE    N/A     57  36  44 SW12G21     N/A
MILK RIVER       N/A     64  34  32 W17G25      N/A
$$

REGIONAL REPORTS...SASKATCHEWAN

CITY           SKY/WX    TMP DP  RH WIND       PRES   REMARKS
SWIFT CURRENT  SUNNY     61  39  44 SW21G28   29.92S
REGINA         MOSUNNY   64  50  59 W10       29.94R
SASKATOON      MOSUNNY   61  50  67 SW3       29.89F
CYPRESS HILLS    N/A     55  36  47 SW12        N/A
VAL MARIE        N/A     64  36  34 W13G20      N/A
ROCKGLEN         N/A     63  39  42 W14G20      N/A
ASSINIBOIA       N/A     61  43  51 E8          N/A
$$




USA.gov is the U.S. government's official web portal to all federal, state and local government web resources and services.